Tracking 35237 objects as of 4-Sep-2026
HD Live streaming from Space Station
objects crossing your sky now

STARLINK-36793

Track STARLINK-36793 now!
10-day predictions
STARLINK-36793 is classified as:


NORAD ID: 100500
Int'l Code: 2026-196AD
Launch date: August 25, 2026
Source: United States (US)
Launch site: AIR FORCE EASTERN TEST RANGE (AFETR)
Your satellite tracking list
Your tracking list is empty




NASA's NSSDC Master Catalog

Two Line Element Set (TLE):
1 A0500U 26196AD  26247.17839886 -.00757907  18540-3 -22448-2 0  9990
2 A0500  53.1594 323.5539 0005102 138.7542 221.3872 15.91787227  2716
Source of the keplerian elements: AFSPC